Regional Weather Roundup
Issued by NWS

Home | Current Version | Previous Version | Graphics & Text | Print | Product List | Glossary On
Versions: 1 2 3 4 5 6 7 8 9 10 11 12 13 14 15 16 17 18 19 20 21 22 23 24 25 26 27 28 29 30 31 32 33 34 35 36 37 38 39 40 41 42 43 44 45 46 47 48 49 50
000
ASUS45 KBOU 250707
RWRCO

WEATHER ROUNDUP FOR COLORADO
NATIONAL WEATHER SERVICE DENVER/BOULDER CO
1200 AM MST TUE NOV 25 2014

NOTE: "FAIR" INDICATES FEW OR NO CLOUDS BELOW 12000 FEET WITH NO
SIGNIFICANT WEATHER AND/OR OBSTRUCTIONS TO VISIBILITY.

COZ001>005-013-030-031-250800-
...NORTHWEST COLORADO...

CITY           SKY/WX    TMP DP  RH WIND       PRES   REMARKS
CRAIG          PTCLDY     9   4  80 E5        30.35F WCI   1
HAYDEN         CLOUDY    16   7  67 E3        30.33F
MEEKER         PTCLDY     5   1  83 NE3       30.36S
MOUNT WERNER   NOT AVBL
STEAMBOAT SPGS CLOUDY    12   9  89 CALM      30.32S
WALDEN         CLEAR      5   1  85 SW3       30.21R
$$

COZ006>008-011-250800-
...WEST CENTRAL VALLEYS...

CITY           SKY/WX    TMP DP  RH WIND       PRES   REMARKS
GRAND JUNCTION CLEAR     21  16  81 SE7       30.41R WCI  12
MONTROSE       CLEAR     19  13  77 SE10      30.42R WCI   7
EAGLE          PTCLDY     9   7  92 SE3       30.38R
RIFLE          PTCLDY    11   9  92 SW3       30.41R
DELTA          CLEAR     21  15  78 SE5       30.43R WCI  15
NUCLA          CLEAR     21  12  68 E12       30.44R WCI   9
$$

COZ017>023-064>068-250800-
...SOUTHWEST COLORADO...

CITY           SKY/WX    TMP DP  RH WIND       PRES   REMARKS
DURANGO        PTCLDY    20   9  62 VRB3      30.34R
CORTEZ         CLEAR     14   9  80 NE6       30.41R WCI   5
PAGOSA SPRINGS PTCLDY    16   2  53 NE5       30.32S WCI   9
TELLURIDE      NOT AVBL
WOLF CREEK PAS PTCLDY     1  -6  71 MISG      30.20S
$$

COZ009-010-012-014-032>034-037-058>063-250800-
...CENTRAL COLORADO...

CITY           SKY/WX    TMP DP  RH WIND       PRES   REMARKS
ASPEN          CLOUDY    16  12  84 S5        30.31R WCI   9
BUENA VISTA    PTCLDY    10   3  73 W6        30.24F WCI   1
COPPER MTN     CLOUDY     7   0  72 W21       30.14R WCI -13
BERTHOUD PASS  CLOUDY     0  -6  78 NW26G36   30.07R WCI -25
COTTONWOOD PAS PTCLDY    18   0  45 NW10G23   30.17F WCI   6
GUNNISON       PTCLDY     1  -8  66 CALM      30.35R
KREMMLING      CLOUDY    19  12  73 W5        30.30R WCI  13
LEADVILLE      LGT SNOW   7   3  84 E5        30.20S FOG     WCI  -2
MONARCH PASS   PTCLDY     1  -4  78 MISG      30.24S
SALIDA         PTCLDY    16   6  66 W3        30.33S
SUNLIGHT       CLOUDY   N/A N/A N/A CALM      30.24S
WILKERSON PASS NOT AVBL
$$

COZ069>075-250800-
...SAN LUIS VALLEY/SANGRE DE CRISTO MOUNTAINS...

CITY           SKY/WX    TMP DP  RH WIND       PRES   REMARKS
ALAMOSA        PTCLDY     6   0  76 CALM      30.29R
LA VETA PASS   PTCLDY     9   1  72 MISG      30.16F
SAGUACHE       NOT AVBL
$$

COZ035-036-038>040-250800-
...NORTHERN COLORADO FRONT RANGE...

CITY           SKY/WX    TMP DP  RH WIND       PRES   REMARKS
DENVER INTL AP PTCLDY    20  12  71 S9        30.17F WCI   9
DMNS CITY PARK   N/A     26   8  46 S8        30.17F WCI  18
AURORA         CLEAR     21  11  66 S12       30.18F WCI   9
FRONT RANGE AP CLEAR     21  18  86 S13       30.18F WCI   9
ERIE MUNI ARPT CLEAR     23  11  60 S5        30.16F WCI  17
BOULDER MUN AP CLEAR     28  10  47 SW3       30.15F
CENTENNIAL     PTCLDY    21  10  62 S8        30.17F WCI  11
BROOMFIELD     CLEAR     27   9  46 W9        30.16F WCI  17
FORT COLLINS   CLEAR     19  12  73 CALM      30.18S
LONGMONT       CLEAR     19  12  75 NW5       30.18S WCI  12
$$

COZ041-046-047-076>085-087-088-250800-
...PIKES PEAK/PALMER DIVIDE AND SOUTHERN FOOTHILLS...

CITY           SKY/WX    TMP DP  RH WIND       PRES   REMARKS
COLO. SPRINGS  CLEAR     16   9  74 N8        30.20F WCI   5
A. F. ACADEMY  CLEAR     22   4  45 VRB7      30.18F WCI  14
ELLICOTT       NOT AVBL
FALCON         NOT AVBL
FORT CARSON    CLEAR     20  10  65 CALM      30.20F
LIMON          CLEAR     14   9  80 CALM      30.20F
MONUMENT HILL  CLEAR     14   5  67 SW8       30.16F WCI   3
TRINIDAD       CLEAR     20  14  77 W12       30.26F WCI   8
$$

COZ042>045-048>051-090-091-250800-
...NORTHEAST COLORADO...

CITY           SKY/WX    TMP DP  RH WIND       PRES   REMARKS
GREELEY ARPT   CLEAR     18   9  68 CALM      30.19S
AKRON          CLEAR     21  16  81 W12       30.16F WCI   9
BURLINGTON     CLEAR     21  15  78 NW9       30.19F WCI  11
WRAY           CLEAR     21  18  88 W7        30.19S WCI  12
STERLING       CLEAR     30  23  74 NW13      30.16F WCI  20
HOLYOKE        CLEAR     21  18  86 W8        30.16F WCI  12
FORT MORGAN    CLEAR     20  15  81 W5        30.18F WCI  13
$$

COZ086-089-092>099-250800-
...SOUTHEAST COLORADO...

CITY           SKY/WX    TMP DP  RH WIND       PRES   REMARKS
PUEBLO         CLEAR     23  19  85 W6        30.25F WCI  16
LA JUNTA       CLEAR     28  21  75 W10       30.26S WCI  19
LAMAR          CLEAR     27  20  75 W9        30.24S WCI  18
SPRINGFIELD      N/A     24  18  77 NW12      30.25R WCI  13
$$


USA.gov is the U.S. government's official web portal to all federal, state and local government web resources and services.